Wind_Speed
8 6 10 13 14 16 18 20 20 21 21 21 22 22 24 24 23 29 25 29 30 26 30 30 26 19 20 19 17 15 14 15 18
11 7 9 12 12 16 16 17 19 19 19 18 18 19 19 20 25 30 29 26 23 24 23 18 18 17 17 15 16 15 13 15 16
9 3 5 9 11 15 15 16 16 16 16 17 16 15 16 17 26 29 27 25 19 18 17 18 16 14 17 16 14 13 12 16 17
8 5 3 8 10 13 14 15 15 15 15 15 15 16 16 16 19 21 21 18 17 16 14 16 15 16 13 13 13 13 13 14 15
4 5 3 7 9 13 14 15 15 15 15 14 13 13 15 16 16 16 16 16 15 13 14 12 13 12 13 12 10 10 12 12 12
5 3 5 8 10 11 14 15 15 14 14 14 13 14 13 14 13 16 17 15 14 13 12 10 10 10 11 11 9 6 9 12 12
7 4 5 8 10 11 14 16 17 16 16 15 14 14 15 14 15 15 14 13 13 12 11 11 9 10 11 11 10 8 7 13 8
7 7 9 9 11 11 15 17 16 15 15 17 16 15 15 15 14 14 13 12 11 11 12 10 10 9 9 9 10 12 13 14 13
13 12 11 11 12 12 13 17 18 16 16 16 17 15 15 13 12 12 13 13 13 14 12 11 11 9 9 9 7 9 10 13 15
13 13 10 12 12 13 17 20 20 19 17 15 16 16 14 14 14 14 12 12 12 13 11 12 11 10 10 10 8 8 9 9 8
13 12 11 8 10 15 20 20 20 18 17 16 15 17 18 17 17 15 13 13 13 12 12 12 12 11 11 10 10 10 9 9 8
10 11 10 8 14 17 18 20 20 21 20 18 17 17 17 17 18 16 15 16 15 14 13 13 12 12 13 12 11 12 11 10 7
12 10 5 6 10 12 15 19 21 22 22 22 23 20 17 15 14 16 17 17 17 17 17 14 11 11 12 12 9 11 11 11 9
12 13 13 6 1 7 10 12 16 16 16 19 16 18 18 17 16 14 13 13 16 18 18 16 15 13 14 15 14 12 12 11 10
10 11 13 11 9 8 6 7 13 12 10 9 13 20 18 21 24 24 21 18 22 23 23 23 20 17 14 13 14 14 13 13 14
6 8 7 7 8 11 14 15 14 12 10 10 10 14 20 19 22 29 29 30 27 23 22 26 25 25 24 17 16 12 14 14 15
5 8 6 2 1 2 3 4 8 15 16 22 17 7 8 8 24 34 29 22 19 23 21 18 15 16 18 20 18 15 12 14 15
5 5 5 4 7 7 4 2 8 15 19 18 11 21 13 25 35 30 19 14 13 19 22 28 24 22 20 21 20 22 21 18 16
8 7 7 5 5 5 4 6 9 6 6 7 4 19 16 33 25 10 7 13 15 20 18 21 24 20 25 30 28 23 26 23 21
8 9 6 3 4 3 3 4 7 8 6 4 5 15 20 16 10 6 10 11 9 10 15 20 22 24 28 32 32 28 25 26 23
Wind_Direction
282 242 214 206 204 202 200 197 194 194 196 197 202 205 211 212 213 211 217 213 211 217 228 239 251 243 245 250 248 252 247 236 236
270 246 210 206 198 200 194 191 192 194 193 191 195 206 204 205 209 219 216 216 215 235 240 234 236 245 240 233 243 237 238 235 229
276 264 205 198 190 191 192 191 189 191 194 189 192 197 202 203 210 218 223 223 224 218 221 233 244 236 235 239 233 232 231 235 232
299 320 207 193 186 183 184 184 185 186 188 183 182 186 191 192 203 210 212 212 213 215 229 241 239 241 233 224 234 243 236 236 223
285 309 229 186 172 167 169 173 175 179 180 182 183 183 188 197 197 198 202 205 212 220 224 224 232 229 219 230 227 237 230 226 219
304 297 163 170 165 169 172 172 173 176 178 178 177 178 184 198 197 196 204 202 201 202 212 221 212 212 209 208 209 223 231 212 209
269 261 206 174 174 179 178 178 179 176 176 175 174 173 177 188 192 192 193 192 191 199 204 194 199 201 200 200 202 204 207 199 180
246 228 216 194 190 183 182 183 181 178 178 172 175 176 178 185 188 187 186 191 199 193 189 196 194 192 197 203 212 223 217 198 185
260 234 217 208 194 188 189 185 186 183 178 179 175 178 183 180 187 191 192 192 194 186 186 187 186 182 184 188 186 212 220 207 211
284 270 245 214 200 196 193 191 188 185 183 182 181 179 184 184 188 195 198 190 183 184 186 187 183 181 182 185 192 194 195 194 192
312 297 262 221 204 203 200 194 192 186 181 181 191 191 191 194 192 192 186 183 183 184 183 184 186 189 191 194 201 200 203 202 196
327 305 275 235 204 213 201 197 192 182 182 180 191 200 202 203 196 190 186 187 184 184 183 191 196 199 199 204 211 213 223 227 231
8 6 333 255 217 213 206 199 192 186 185 182 197 199 199 204 209 209 197 191 190 194 193 192 195 203 206 208 214 225 227 230 235
6 16 18 30 201 215 214 193 189 201 195 206 195 184 188 196 198 199 202 200 199 199 198 193 193 202 213 213 214 220 225 223 226
8 12 16 29 93 97 96 156 171 169 173 181 173 182 184 191 196 199 202 207 216 216 207 197 185 203 206 211 210 213 220 228 226
9 9 17 35 70 97 111 118 132 119 134 147 171 187 181 188 190 201 203 191 194 209 208 202 184 189 198 194 211 213 228 229 226
2 0 13 43 36 175 161 148 155 150 145 144 154 153 140 198 202 201 190 200 201 196 197 199 196 195 202 190 197 210 219 220 220
292 306 351 30 59 38 53 227 221 216 205 217 253 346 326 255 225 200 190 209 208 205 202 205 199 201 204 193 198 216 222 203 200
326 305 273 320 36 48 19 341 337 290 239 247 119 56 236 231 232 250 215 204 198 203 206 216 221 235 235 233 233 228 231 212 213
48 64 74 56 36 52 72 50 22 342 286 239 141 170 179 210 225 253 248 232 215 229 234 231 226 232 234 238 236 224 220 209 204
Height
713 715 717 721 724 729 734 739 743 747 752 756 760 764 768 773 778 780 785 789 793 796 799 801 803 804 805 807 808 808 808 810 810
708 710 713 718 722 726 730 736 740 744 748 752 756 761 765 768 772 775 778 783 787 791 794 797 799 799 800 802 803 803 804 806 807
703 707 711 714 719 724 729 733 738 742 745 748 752 758 762 765 767 771 776 781 783 787 789 793 795 795 795 797 799 800 801 801 802
703 706 709 712 716 721 727 732 736 739 743 746 749 754 758 762 764 769 773 776 781 783 786 788 789 791 792 793 795 796 796 796 797
702 705 706 710 715 720 724 728 733 737 740 744 748 751 755 759 763 767 770 773 777 780 782 785 786 787 788 790 791 793 793 794 794
704 705 706 708 712 717 721 726 730 734 738 741 745 749 753 757 761 763 767 769 772 776 779 781 784 785 785 787 789 791 792 793 794
703 704 706 707 709 713 718 723 727 730 734 738 742 746 749 754 759 762 765 768 770 773 776 779 781 782 784 785 788 790 791 792 794
700 702 703 704 706 710 715 719 724 728 732 734 739 744 748 752 758 761 764 766 769 771 774 777 779 781 783 784 786 789 790 792 793
697 695 698 701 703 707 711 718 722 725 728 732 736 742 747 752 757 760 762 764 766 769 771 774 777 778 781 783 784 785 787 788 790
696 692 694 696 701 704 709 713 717 720 725 731 735 740 746 750 754 758 761 764 766 768 770 773 774 776 778 780 782 784 786 787 789
696 692 690 693 697 700 704 708 712 717 722 728 735 738 740 745 749 754 757 760 763 767 769 772 773 776 778 779 782 784 786 787 788
695 690 687 687 691 694 699 704 708 712 718 723 730 735 740 744 746 749 753 755 759 763 765 768 772 774 776 779 781 782 784 786 787
695 690 687 687 689 692 696 699 704 708 712 715 721 728 735 742 746 746 747 749 753 756 758 762 768 772 775 776 779 781 782 784 787
701 695 690 688 690 692 695 698 701 707 709 711 716 722 727 734 739 743 746 750 752 751 754 758 760 767 771 773 775 778 779 782 784
703 700 697 695 693 694 697 699 699 702 707 711 715 715 720 726 729 734 739 744 747 749 749 748 746 760 766 770 770 773 777 779 781
706 703 701 701 701 700 700 700 701 702 702 708 716 720 713 720 724 728 728 728 730 741 745 743 737 747 757 758 766 769 773 775 778
706 705 703 702 701 703 706 706 704 703 705 699 709 719 715 723 729 719 722 725 727 732 737 741 743 747 752 751 756 764 768 771 774
706 706 705 706 706 706 706 706 704 700 698 693 689 690 691 722 727 716 717 725 728 731 732 733 736 741 745 747 751 754 763 765 769
707 706 706 708 709 709 709 707 704 699 694 690 684 673 700 718 727 722 721 727 726 727 729 730 733 735 738 743 745 751 757 761 765
711 708 707 707 706 707 707 704 704 701 699 694 690 698 702 717 720 720 723 724 724 725 726 728 729 732 733 736 739 744 750 756 760